sat.trackr.live / text

‹ back to catalog

STARLINK-32598

NORAD 62046 · 2024-216Q

PAYLOAD ACTIVE UNKNOWN

§ Identity

Operator
Country
US
Launch date
2024-11-21
Launch site
AFETR
Launch vehicle
Mass (kg)
RCS (m²)

Purposes: comms

External: N2YO · Heavens-Above · Gunter

§ Orbital elements

Epoch: 2026-05-25T03:25:16.800384Z

Period
94.27 min
Inclination
42.9989°
Eccentricity
0.0000821
Mean motion
15.27578820 rev/d
Perigee alt
482.5 km
Apogee alt
483.6 km
Semi-major
6,861.2 km
B*
3.9068e-4
RAAN
184.0800°
Arg perigee
269.2544°
Mean anomaly
90.8213°
Rev number
8,557

§ Raw data

STARLINK-325981 62046U 24216Q   26145.14255556  .00010504  00000+0  39068-3 0  99922 62046  42.9989 184.0800 0000821 269.2544  90.8213 15.27578820 85578

JSON: /api/v1/satellites/62046 · /tle

For live sub-satellite position, see the globe view (requires WebGL).

§ Visibility from observer

Set your observer location to see the next 7 days of passes ≥ 10°. The values pass through the URL so the page stays shareable.

No JS? Fill the form by hand. The geolocation button needs JavaScript.